Location: Newark
(25.6108°S, 54.5803°W)
Time: 21:09:45
(UTC+00:00)

A-11 Canister half - Pass Details

Date: 03 November 2020
Orbit: 1516 x 1684 km, 47.2° (Epoch: 03 December)

Event Time Altitude Azimuth Distance (km) Brightness Sun altitude
Exits shadow 07:17:16 - 350° (N) 4,141 10.9 -19.7°
Reaches altitude 10° 07:18:55 10° 356° (N) 3,694 10.7 -19.3°
Maximum altitude 07:26:40 30° 53° (NE) 2,443 10.3 -17.8°
Drops below altitude 10° 07:34:22 10° 110° (ESE) 3,687 12.3 -16.3°
Sets 07:37:51 0° 120° (ESE) 4,680 13.4 -15.5°
